Wetterdaten: Sonntag, 29.12.2013
Datum Zeit Temperatur Luftfeuchte Luftdruck Regen Wind Richtung Richtung Taupunkt Windchill Windben
29.12.2013 00:00 2,5 C 94 % 1012,8 hPa 0,0 l/m 4,2 km/h (1 Bft) O-SO 112 1,6 C 1,7 C 4,5 km/h (1 Bft)
29.12.2013 00:04 2,5 C 94 % 1012,8 hPa 0,0 l/m 4,0 km/h (1 Bft) S-SO 157 1,6 C 1,8 C 3,4 km/h (1 Bft)
29.12.2013 00:05 2,5 C 94 % 1012,8 hPa 0,0 l/m 4,0 km/h (1 Bft) S-SO 157 1,6 C 1,8 C 3,4 km/h (1 Bft)
29.12.2013 00:10 2,6 C 94 % 1012,7 hPa 0,0 l/m 4,3 km/h (1 Bft) O-SO 112 1,7 C 1,8 C 6,0 km/h (2 Bft)
29.12.2013 00:15 2,7 C 94 % 1012,7 hPa 0,0 l/m 4,0 km/h (1 Bft) S-SO 157 1,8 C 2,0 C 5,5 km/h (1 Bft)
29.12.2013 00:20 2,9 C 94 % 1012,7 hPa 0,0 l/m 4,5 km/h (1 Bft) S 180 2,0 C 1,9 C 7,4 km/h (2 Bft)
29.12.2013 00:25 2,8 C 94 % 1012,7 hPa 0,0 l/m 4,8 km/h (1 Bft) O-SO 112 1,9 C 1,8 C 4,7 km/h (1 Bft)
29.12.2013 00:30 2,7 C 94 % 1012,9 hPa 0,0 l/m 3,9 km/h (1 Bft) SO 135 1,8 C 2,3 C 5,0 km/h (1 Bft)
29.12.2013 00:35 2,8 C 94 % 1012,9 hPa 0,0 l/m 4,2 km/h (1 Bft) SO 135 1,9 C 2,2 C 7,6 km/h (2 Bft)
29.12.2013 00:40 2,9 C 94 % 1012,9 hPa 0,0 l/m 4,5 km/h (1 Bft) SO 135 2,0 C 1,9 C 6,8 km/h (2 Bft)
29.12.2013 00:45 2,9 C 95 % 1012,9 hPa 0,0 l/m 4,2 km/h (1 Bft) O-SO 112 2,2 C 2,1 C 3,4 km/h (1 Bft)
29.12.2013 00:50 2,9 C 95 % 1013,3 hPa 0,0 l/m 4,0 km/h (1 Bft) SO 135 2,2 C 2,1 C 4,3 km/h (1 Bft)
29.12.2013 00:55 2,8 C 95 % 1013,3 hPa 0,0 l/m 4,3 km/h (1 Bft) SO 135 2,1 C 2,1 C 4,7 km/h (1 Bft)
29.12.2013 01:00 2,8 C 95 % 1013,3 hPa 0,0 l/m 4,0 km/h (1 Bft) S-SO 157 2,1 C 2,3 C 4,5 km/h (1 Bft)
29.12.2013 01:05 2,7 C 95 % 1013,3 hPa 0,0 l/m 3,5 km/h (1 Bft) S 180 2,0 C 2,5 C 2,7 km/h (1 Bft)
29.12.2013 01:10 2,8 C 95 % 1013,6 hPa 0,0 l/m 3,2 km/h (1 Bft) S-SO 157 2,1 C 2,7 C 6,1 km/h (2 Bft)
29.12.2013 01:15 2,7 C 95 % 1013,6 hPa 0,0 l/m 3,4 km/h (1 Bft) S 180 2,0 C 2,6 C 3,2 km/h (1 Bft)
29.12.2013 01:20 2,6 C 95 % 1013,6 hPa 0,0 l/m 3,1 km/h (1 Bft) O-SO 112 1,9 C 2,7 C 1,6 km/h (1 Bft)
29.12.2013 01:25 2,7 C 95 % 1013,6 hPa 0,0 l/m 2,4 km/h (1 Bft) O-SO 112 2,0 C 2,9 C 3,1 km/h (1 Bft)
29.12.2013 01:30 2,7 C 95 % 1013,8 hPa 0,0 l/m 2,6 km/h (1 Bft) S-SO 157 2,0 C 2,9 C 3,5 km/h (1 Bft)
29.12.2013 01:35 2,7 C 95 % 1013,8 hPa 0,0 l/m 3,9 km/h (1 Bft) O-SO 112 2,0 C 2,2 C 7,1 km/h (2 Bft)
29.12.2013 01:40 2,6 C 95 % 1013,8 hPa 0,0 l/m 4,2 km/h (1 Bft) SO 135 1,9 C 2,1 C 4,8 km/h (1 Bft)
29.12.2013 01:45 2,7 C 95 % 1013,8 hPa 0,0 l/m 4,8 km/h (1 Bft) O 90 2,0 C 1,6 C 4,7 km/h (1 Bft)
29.12.2013 01:50 2,8 C 95 % 1013,6 hPa 0,0 l/m 5,0 km/h (1 Bft) SO 135 2,1 C 1,7 C 7,1 km/h (2 Bft)
29.12.2013 01:55 2,9 C 95 % 1013,6 hPa 0,0 l/m 5,5 km/h (1 Bft) O-SO 112 2,2 C 1,5 C 10,1 km/h (2 Bft)
29.12.2013 02:00 2,8 C 95 % 1013,6 hPa 0,0 l/m 5,3 km/h (1 Bft) S 180 2,1 C 1,6 C 5,0 km/h (1 Bft)
29.12.2013 02:05 2,7 C 95 % 1013,6 hPa 0,0 l/m 5,6 km/h (1 Bft) O-SO 112 2,0 C 1,4 C 12,4 km/h (3 Bft)
29.12.2013 02:10 2,7 C 95 % 1013,9 hPa 0,0 l/m 6,0 km/h (2 Bft) S-SO 157 2,0 C 1,3 C 7,9 km/h (2 Bft)
29.12.2013 02:15 2,7 C 95 % 1013,9 hPa 0,0 l/m 5,8 km/h (2 Bft) O 90 2,0 C 1,3 C 5,5 km/h (1 Bft)
29.12.2013 02:20 2,7 C 95 % 1013,9 hPa 0,0 l/m 5,1 km/h (1 Bft) O-SO 112 2,0 C 1,6 C 6,6 km/h (2 Bft)
29.12.2013 02:25 2,7 C 95 % 1013,9 hPa 0,0 l/m 5,1 km/h (1 Bft) SO 135 2,0 C 1,5 C 6,1 km/h (2 Bft)
29.12.2013 02:30 2,6 C 95 % 1013,9 hPa 0,0 l/m 5,6 km/h (1 Bft) S 180 1,9 C 1,3 C 7,6 km/h (2 Bft)
29.12.2013 02:35 2,6 C 95 % 1013,9 hPa 0,0 l/m 5,3 km/h (1 Bft) S 180 1,9 C 1,4 C 6,4 km/h (2 Bft)
29.12.2013 02:40 2,6 C 95 % 1013,9 hPa 0,0 l/m 5,6 km/h (1 Bft) S-SO 157 1,9 C 1,3 C 7,6 km/h (2 Bft)
29.12.2013 02:45 2,5 C 94 % 1013,9 hPa 0,0 l/m 6,3 km/h (2 Bft) N 360 1,6 C 1,1 C 6,4 km/h (2 Bft)
29.12.2013 02:50 2,4 C 94 % 1014,2 hPa 0,0 l/m 6,1 km/h (2 Bft) O-SO 112 1,5 C 1,1 C 5,5 km/h (1 Bft)
29.12.2013 02:55 2,4 C 94 % 1014,2 hPa 0,0 l/m 5,8 km/h (2 Bft) S-SO 157 1,5 C 1,1 C 12,7 km/h (3 Bft)
29.12.2013 03:00 2,5 C 94 % 1014,2 hPa 0,0 l/m 6,3 km/h (2 Bft) S-SO 157 1,6 C 1,0 C 9,0 km/h (2 Bft)
29.12.2013 03:05 2,5 C 94 % 1014,2 hPa 0,0 l/m 7,7 km/h (2 Bft) S 180 1,6 C -0,8 C 14,2 km/h (3 Bft)
29.12.2013 03:10 2,5 C 94 % 1014,6 hPa 0,0 l/m 6,6 km/h (2 Bft) SO 135 1,6 C 0,5 C 6,1 km/h (2 Bft)
29.12.2013 03:15 2,5 C 94 % 1014,6 hPa 0,0 l/m 5,6 km/h (1 Bft) S 180 1,6 C 1,2 C 4,7 km/h (1 Bft)
29.12.2013 03:20 2,5 C 94 % 1014,6 hPa 0,0 l/m 6,3 km/h (2 Bft) SO 135 1,6 C 1,0 C 16,3 km/h (3 Bft)
29.12.2013 03:25 2,4 C 94 % 1014,6 hPa 0,0 l/m 6,9 km/h (2 Bft) S 180 1,5 C 0,3 C 9,2 km/h (2 Bft)
29.12.2013 03:30 2,4 C 94 % 1014,4 hPa 0,0 l/m 8,9 km/h (2 Bft) S-SO 157 1,5 C -2,1 C 7,4 km/h (2 Bft)
29.12.2013 03:35 2,3 C 94 % 1014,4 hPa 0,0 l/m 8,9 km/h (2 Bft) SO 135 1,4 C -2,1 C 10,9 km/h (2 Bft)
29.12.2013 03:40 2,4 C 94 % 1014,4 hPa 0,0 l/m 7,7 km/h (2 Bft) S-SO 157 1,5 C -0,6 C 11,3 km/h (2 Bft)
29.12.2013 03:45 2,3 C 94 % 1014,4 hPa 0,0 l/m 8,0 km/h (2 Bft) S 180 1,4 C -1,1 C 12,2 km/h (2 Bft)
29.12.2013 03:50 2,4 C 94 % 1015,2 hPa 0,0 l/m 8,4 km/h (2 Bft) S 180 1,5 C -1,6 C 20,9 km/h (4 Bft)
29.12.2013 03:55 2,3 C 93 % 1015,2 hPa 0,0 l/m 8,5 km/h (2 Bft) NO 45 1,3 C -1,7 C 12,4 km/h (3 Bft)
29.12.2013 04:00 2,3 C 93 % 1015,2 hPa 0,0 l/m 9,0 km/h (2 Bft) S-SO 157 1,3 C -2,3 C 14,0 km/h (3 Bft)
29.12.2013 04:05 2,4 C 93 % 1015,2 hPa 0,0 l/m 9,7 km/h (2 Bft) S 180 1,4 C -3,1 C 12,6 km/h (3 Bft)
29.12.2013 04:10 2,2 C 93 % 1015,4 hPa 0,0 l/m 10,0 km/h (2 Bft) S 180 1,2 C -3,5 C 11,7 km/h (2 Bft)
29.12.2013 04:15 2,3 C 93 % 1015,4 hPa 0,0 l/m 7,9 km/h (2 Bft) S 180 1,3 C -1,0 C 4,7 km/h (1 Bft)
29.12.2013 04:20 2,2 C 93 % 1015,4 hPa 0,0 l/m 7,4 km/h (2 Bft) S 180 1,2 C -0,4 C 6,4 km/h (2 Bft)
29.12.2013 04:25 2,2 C 93 % 1015,4 hPa 0,0 l/m 6,0 km/h (2 Bft) S-SW 202 1,2 C 1,1 C 7,9 km/h (2 Bft)
29.12.2013 04:30 2,1 C 93 % 1015,5 hPa 0,0 l/m 6,0 km/h (2 Bft) S 180 1,1 C 1,0 C 6,6 km/h (2 Bft)
29.12.2013 04:35 2,0 C 93 % 1015,5 hPa 0,0 l/m 5,8 km/h (2 Bft) S 180 1,0 C 1,1 C 7,1 km/h (2 Bft)
29.12.2013 04:40 2,0 C 93 % 1015,5 hPa 0,0 l/m 6,0 km/h (2 Bft) S-SW 202 1,0 C 1,1 C 14,0 km/h (3 Bft)
29.12.2013 04:45 2,0 C 93 % 1015,5 hPa 0,0 l/m 6,8 km/h (2 Bft) S-SO 157 1,0 C 0,3 C 9,0 km/h (2 Bft)
29.12.2013 04:50 2,0 C 93 % 1016,1 hPa 0,0 l/m 6,6 km/h (2 Bft) SO 135 1,0 C 0,5 C 7,4 km/h (2 Bft)
29.12.2013 04:55 2,0 C 93 % 1016,1 hPa 0,0 l/m 5,3 km/h (1 Bft) S 180 1,0 C 1,1 C 5,5 km/h (1 Bft)
29.12.2013 05:00 1,9 C 93 % 1016,1 hPa 0,0 l/m 6,1 km/h (2 Bft) S 180 0,9 C 0,8 C 9,2 km/h (2 Bft)
29.12.2013 05:04 1,9 C 93 % 1016,1 hPa 0,0 l/m 6,1 km/h (2 Bft) S-SO 157 0,9 C 0,8 C 6,8 km/h (2 Bft)
29.12.2013 05:05 1,9 C 93 % 1016,1 hPa 0,0 l/m 6,1 km/h (2 Bft) S-SO 157 0,9 C 0,8 C 6,8 km/h (2 Bft)
29.12.2013 05:10 1,8 C 93 % 1016,2 hPa 0,0 l/m 5,8 km/h (2 Bft) O-SO 112 0,8 C 0,8 C 7,4 km/h (2 Bft)
29.12.2013 05:15 1,9 C 94 % 1016,2 hPa 0,0 l/m 6,1 km/h (2 Bft) S 180 1,0 C 0,7 C 9,7 km/h (2 Bft)
29.12.2013 05:20 1,9 C 93 % 1016,2 hPa 0,0 l/m 6,9 km/h (2 Bft) S-SW 202 0,9 C -0,1 C 9,2 km/h (2 Bft)
29.12.2013 05:25 1,9 C 93 % 1016,2 hPa 0,0 l/m 8,4 km/h (2 Bft) S 180 0,9 C -2,2 C 8,7 km/h (2 Bft)
29.12.2013 05:30 1,8 C 93 % 1016,4 hPa 0,0 l/m 9,0 km/h (2 Bft) S 180 0,8 C -3,0 C 9,7 km/h (2 Bft)
29.12.2013 05:35 1,8 C 93 % 1016,4 hPa 0,0 l/m 8,7 km/h (2 Bft) S-SO 157 0,8 C -2,7 C 7,9 km/h (2 Bft)
29.12.2013 05:40 1,8 C 93 % 1016,4 hPa 0,0 l/m 8,2 km/h (2 Bft) O-SO 112 0,8 C -2,2 C 6,6 km/h (2 Bft)
29.12.2013 05:45 1,7 C 93 % 1016,4 hPa 0,0 l/m 8,4 km/h (2 Bft) S 180 0,7 C -2,6 C 12,4 km/h (3 Bft)
29.12.2013 05:50 1,7 C 93 % 1016,4 hPa 0,0 l/m 8,5 km/h (2 Bft) S 180 0,7 C -2,8 C 15,9 km/h (3 Bft)
29.12.2013 05:55 1,6 C 93 % 1016,4 hPa 0,0 l/m 8,7 km/h (2 Bft) S 180 0,6 C -3,1 C 9,2 km/h (2 Bft)
29.12.2013 06:00 1,6 C 93 % 1016,4 hPa 0,0 l/m 8,4 km/h (2 Bft) S-SW 202 0,6 C -2,9 C 7,4 km/h (2 Bft)
29.12.2013 06:05 1,5 C 94 % 1016,4 hPa 0,0 l/m 7,4 km/h (2 Bft) S-SO 157 0,6 C -1,6 C 8,7 km/h (2 Bft)
29.12.2013 06:10 1,5 C 94 % 1017,0 hPa 0,0 l/m 7,1 km/h (2 Bft) S 180 0,6 C -1,1 C 8,2 km/h (2 Bft)
29.12.2013 06:15 1,3 C 94 % 1017,0 hPa 0,0 l/m 6,1 km/h (2 Bft) S 180 0,4 C -0,2 C 6,9 km/h (2 Bft)
29.12.2013 06:20 1,3 C 94 % 1017,0 hPa 0,0 l/m 6,1 km/h (2 Bft) S 180 0,4 C -0,2 C 9,5 km/h (2 Bft)
29.12.2013 06:25 1,2 C 94 % 1017,0 hPa 0,0 l/m 5,6 km/h (1 Bft) SO 135 0,3 C -0,2 C 5,3 km/h (1 Bft)
29.12.2013 06:30 1,2 C 94 % 1017,5 hPa 0,0 l/m 5,6 km/h (1 Bft) S-SW 202 0,3 C -0,2 C 7,2 km/h (2 Bft)
29.12.2013 06:35 1,2 C 94 % 1017,5 hPa 0,0 l/m 6,0 km/h (2 Bft) S-SO 157 0,3 C -0,4 C 6,1 km/h (2 Bft)
29.12.2013 06:40 1,1 C 94 % 1017,5 hPa 0,0 l/m 5,8 km/h (2 Bft) SO 135 0,2 C -0,3 C 5,1 km/h (1 Bft)
29.12.2013 06:45 1,2 C 95 % 1017,5 hPa 0,0 l/m 5,3 km/h (1 Bft) SO 135 0,5 C -0,2 C 6,1 km/h (2 Bft)
29.12.2013 06:50 1,2 C 95 % 1017,8 hPa 0,0 l/m 5,3 km/h (1 Bft) S 180 0,5 C -0,3 C 6,1 km/h (2 Bft)
29.12.2013 06:55 1,2 C 95 % 1017,8 hPa 0,0 l/m 5,5 km/h (1 Bft) O 90 0,5 C -0,3 C 6,4 km/h (2 Bft)
29.12.2013 07:00 1,3 C 95 % 1017,8 hPa 0,0 l/m 5,5 km/h (1 Bft) O-SO 112 0,6 C -0,2 C 10,1 km/h (2 Bft)
29.12.2013 07:05 1,3 C 95 % 1017,8 hPa 0,0 l/m 5,5 km/h (1 Bft) O-SO 112 0,6 C -0,2 C 6,9 km/h (2 Bft)
29.12.2013 07:10 1,2 C 95 % 1018,1 hPa 0,0 l/m 6,0 km/h (2 Bft) S-SO 157 0,5 C -0,3 C 7,4 km/h (2 Bft)
29.12.2013 07:15 1,2 C 95 % 1018,1 hPa 0,0 l/m 6,1 km/h (2 Bft) S-SO 157 0,5 C -0,2 C 6,9 km/h (2 Bft)
29.12.2013 07:20 1,1 C 95 % 1018,1 hPa 0,0 l/m 6,1 km/h (2 Bft) S 180 0,4 C -0,3 C 7,2 km/h (2 Bft)
29.12.2013 07:25 1,1 C 95 % 1018,1 hPa 0,0 l/m 6,0 km/h (2 Bft) S 180 0,4 C -0,3 C 5,8 km/h (2 Bft)
29.12.2013 07:30 1,1 C 95 % 1018,1 hPa 0,0 l/m 5,3 km/h (1 Bft) S-SO 157 0,4 C -0,1 C 6,8 km/h (2 Bft)
29.12.2013 07:35 1,1 C 95 % 1018,1 hPa 0,0 l/m 5,1 km/h (1 Bft) S-SO 157 0,4 C 0,1 C 7,2 km/h (2 Bft)
29.12.2013 07:40 1,1 C 95 % 1018,1 hPa 0,0 l/m 5,8 km/h (2 Bft) S 180 0,4 C -0,2 C 5,5 km/h (1 Bft)
29.12.2013 07:45 1,0 C 95 % 1018,1 hPa 0,0 l/m 6,0 km/h (2 Bft) S 180 0,3 C -0,3 C 5,6 km/h (1 Bft)
29.12.2013 07:50 1,1 C 95 % 1018,0 hPa 0,0 l/m 5,5 km/h (1 Bft) S-SO 157 0,4 C -0,2 C 5,8 km/h (2 Bft)
29.12.2013 07:55 1,1 C 95 % 1018,0 hPa 0,0 l/m 6,3 km/h (2 Bft) S 180 0,4 C -0,6 C 13,0 km/h (3 Bft)
29.12.2013 08:00 1,0 C 95 % 1018,0 hPa 0,0 l/m 6,4 km/h (2 Bft) S 180 0,3 C -0,6 C 7,2 km/h (2 Bft)
29.12.2013 08:05 0,9 C 95 % 1018,0 hPa 0,0 l/m 6,8 km/h (2 Bft) S-SO 157 0,2 C -1,2 C 5,5 km/h (1 Bft)
29.12.2013 08:10 1,0 C 95 % 1018,4 hPa 0,0 l/m 6,4 km/h (2 Bft) S-SO 157 0,3 C -0,8 C 10,1 km/h (2 Bft)
29.12.2013 08:15 0,9 C 95 % 1018,4 hPa 0,0 l/m 6,9 km/h (2 Bft) S 180 0,2 C -1,5 C 7,1 km/h (2 Bft)
29.12.2013 08:20 0,8 C 95 % 1018,4 hPa 0,0 l/m 6,3 km/h (2 Bft) S-SO 157 0,1 C -0,7 C 6,1 km/h (2 Bft)
29.12.2013 08:25 0,9 C 95 % 1018,4 hPa 0,0 l/m 6,3 km/h (2 Bft) S-SO 157 0,2 C -0,7 C 6,8 km/h (2 Bft)
29.12.2013 08:30 0,8 C 95 % 1018,8 hPa 0,0 l/m 6,0 km/h (2 Bft) S 180 0,1 C -0,6 C 5,5 km/h (1 Bft)
29.12.2013 08:35 0,9 C 95 % 1018,8 hPa 0,0 l/m 6,3 km/h (2 Bft) SO 135 0,2 C -0,7 C 10,1 km/h (2 Bft)
29.12.2013 08:40 1,0 C 95 % 1018,8 hPa 0,0 l/m 6,8 km/h (2 Bft) S 180 0,3 C -1,2 C 8,4 km/h (2 Bft)
29.12.2013 08:45 1,0 C 95 % 1018,8 hPa 0,0 l/m 6,9 km/h (2 Bft) S 180 0,3 C -1,4 C 7,4 km/h (2 Bft)
29.12.2013 08:50 1,0 C 95 % 1019,1 hPa 0,0 l/m 6,1 km/h (2 Bft) SW 225 0,3 C -0,6 C 8,0 km/h (2 Bft)
29.12.2013 08:55 1,0 C 94 % 1019,1 hPa 0,0 l/m 5,8 km/h (2 Bft) SO 135 0,1 C -0,3 C 6,4 km/h (2 Bft)
29.12.2013 09:00 1,1 C 94 % 1019,1 hPa 0,0 l/m 6,8 km/h (2 Bft) S 180 0,2 C -1,1 C 6,8 km/h (2 Bft)
29.12.2013 09:05 1,1 C 94 % 1019,1 hPa 0,0 l/m 6,3 km/h (2 Bft) S 180 0,2 C -0,6 C 7,2 km/h (2 Bft)
29.12.2013 09:10 1,1 C 94 % 1019,3 hPa 0,0 l/m 6,3 km/h (2 Bft) S-SO 157 0,2 C -0,6 C 6,4 km/h (2 Bft)
29.12.2013 09:15 1,1 C 94 % 1019,3 hPa 0,0 l/m 6,3 km/h (2 Bft) S 180 0,2 C -0,4 C 7,9 km/h (2 Bft)
29.12.2013 09:20 1,2 C 94 % 1019,3 hPa 0,0 l/m 7,1 km/h (2 Bft) S-SO 157 0,3 C -1,4 C 8,0 km/h (2 Bft)
29.12.2013 09:25 1,2 C 94 % 1019,3 hPa 0,0 l/m 7,2 km/h (2 Bft) S 180 0,3 C -1,4 C 9,0 km/h (2 Bft)
29.12.2013 09:30 1,2 C 93 % 1019,5 hPa 0,0 l/m 7,2 km/h (2 Bft) S-SW 202 0,2 C -1,4 C 8,0 km/h (2 Bft)
29.12.2013 09:35 1,2 C 93 % 1019,5 hPa 0,0 l/m 6,9 km/h (2 Bft) S 180 0,2 C -1,0 C 9,0 km/h (2 Bft)
29.12.2013 09:40 1,2 C 93 % 1019,5 hPa 0,0 l/m 7,1 km/h (2 Bft) S-SW 202 0,2 C -1,3 C 8,2 km/h (2 Bft)
29.12.2013 09:45 1,3 C 93 % 1019,5 hPa 0,0 l/m 7,2 km/h (2 Bft) S 180 0,3 C -1,4 C 8,2 km/h (2 Bft)
29.12.2013 09:50 1,3 C 93 % 1019,9 hPa 0,0 l/m 6,8 km/h (2 Bft) S-SO 157 0,3 C -0,7 C 15,8 km/h (3 Bft)
29.12.2013 09:55 1,3 C 93 % 1019,9 hPa 0,0 l/m 6,3 km/h (2 Bft) S 180 0,3 C -0,2 C 7,2 km/h (2 Bft)
29.12.2013 09:59 1,3 C 93 % 1019,9 hPa 0,0 l/m 5,8 km/h (2 Bft) S 180 0,3 C 0,0 C 4,8 km/h (1 Bft)
29.12.2013 10:00 1,3 C 93 % 1019,9 hPa 0,0 l/m 5,8 km/h (2 Bft) S 180 0,3 C 0,0 C 4,8 km/h (1 Bft)
29.12.2013 10:05 1,3 C 93 % 1019,9 hPa 0,0 l/m 3,9 km/h (1 Bft) S 180 0,3 C 0,9 C 4,0 km/h (1 Bft)
29.12.2013 10:10 1,4 C 93 % 1019,9 hPa 0,0 l/m 2,7 km/h (1 Bft) S-SW 202 0,4 C 1,7 C 2,1 km/h (1 Bft)
29.12.2013 10:15 1,5 C 93 % 1019,9 hPa 0,0 l/m 3,4 km/h (1 Bft) SW 225 0,5 C 1,3 C 3,9 km/h (1 Bft)
29.12.2013 10:20 1,5 C 93 % 1019,9 hPa 0,0 l/m 3,9 km/h (1 Bft) S-SO 157 0,5 C 1,1 C 4,7 km/h (1 Bft)
29.12.2013 10:25 1,5 C 93 % 1019,9 hPa 0,0 l/m 3,5 km/h (1 Bft) SO 135 0,5 C 1,4 C 3,2 km/h (1 Bft)
29.12.2013 10:30 1,6 C 93 % 1020,2 hPa 0,0 l/m 4,2 km/h (1 Bft) S-SO 157 0,6 C 1,1 C 2,3 km/h (1 Bft)
29.12.2013 10:35 1,7 C 93 % 1020,2 hPa 0,0 l/m 3,9 km/h (1 Bft) O-SO 112 0,7 C 1,3 C 6,3 km/h (2 Bft)
29.12.2013 10:40 1,8 C 92 % 1020,2 hPa 0,0 l/m 2,7 km/h (1 Bft) O 90 0,6 C 2,2 C 4,3 km/h (1 Bft)
29.12.2013 10:45 2,0 C 92 % 1020,2 hPa 0,0 l/m 3,2 km/h (1 Bft) S-SO 157 0,8 C 1,9 C 3,9 km/h (1 Bft)
29.12.2013 10:50 2,1 C 92 % 1020,4 hPa 0,0 l/m 2,1 km/h (1 Bft) S 180 0,9 C 2,6 C 0,0 km/h (0 Bft)
29.12.2013 10:55 2,6 C 92 % 1020,4 hPa 0,0 l/m 1,3 km/h (1 Bft) S 180 1,4 C 2,9 C 4,3 km/h (1 Bft)
29.12.2013 11:00 2,7 C 92 % 1020,4 hPa 0,0 l/m 1,4 km/h (1 Bft) S 180 1,5 C 3,2 C 2,9 km/h (1 Bft)
29.12.2013 11:05 2,9 C 92 % 1020,4 hPa 0,0 l/m 1,8 km/h (1 Bft) O 90 1,7 C 3,4 C 1,8 km/h (1 Bft)
29.12.2013 11:10 2,9 C 91 % 1020,7 hPa 0,0 l/m 2,3 km/h (1 Bft) W 270 1,6 C 3,7 C 0,0 km/h (0 Bft)
29.12.2013 11:15 2,8 C 90 % 1020,7 hPa 0,0 l/m 2,1 km/h (1 Bft) SO 135 1,3 C 3,9 C 0,0 km/h (0 Bft)
29.12.2013 11:20 2,7 C 89 % 1020,7 hPa 0,0 l/m 2,4 km/h (1 Bft) SO 135 1,1 C 3,9 C 3,2 km/h (1 Bft)
29.12.2013 11:25 2,7 C 89 % 1020,7 hPa 0,0 l/m 2,1 km/h (1 Bft) S-SW 202 1,1 C 3,8 C 2,6 km/h (1 Bft)
29.12.2013 11:30 2,7 C 89 % 1020,9 hPa 0,0 l/m 1,9 km/h (1 Bft) SO 135 1,1 C 3,5 C 1,8 km/h (1 Bft)
29.12.2013 11:35 2,6 C 90 % 1020,9 hPa 0,0 l/m 1,6 km/h (1 Bft) S 180 1,1 C 3,4 C 0,0 km/h (0 Bft)
29.12.2013 11:40 2,6 C 90 % 1020,9 hPa 0,0 l/m 0,8 km/h (0 Bft) S-SO 157 1,1 C 3,4 C 0,0 km/h (0 Bft)
29.12.2013 11:45 2,7 C 90 % 1020,9 hPa 0,0 l/m 0,3 km/h (0 Bft) S 180 1,2 C 3,4 C 0,0 km/h (0 Bft)
29.12.2013 11:50 2,8 C 91 % 1020,8 hPa 0,0 l/m 0,2 km/h (0 Bft) S-SW 202 1,5 C 3,5 C 0,0 km/h (0 Bft)
29.12.2013 11:55 3,1 C 90 % 1020,8 hPa 0,0 l/m 0,0 km/h (0 Bft) W-SW 247 1,6 C 3,8 C 1,8 km/h (1 Bft)
29.12.2013 12:00 3,2 C 90 % 1020,8 hPa 0,0 l/m 0,5 km/h (0 Bft) W-SW 247 1,7 C 3,9 C 2,4 km/h (1 Bft)
29.12.2013 12:05 3,4 C 90 % 1020,8 hPa 0,0 l/m 0,6 km/h (0 Bft) W-SW 247 1,9 C 4,1 C 0,0 km/h (0 Bft)
29.12.2013 12:10 3,6 C 89 % 1021,4 hPa 0,0 l/m 0,5 km/h (0 Bft) W 270 2,0 C 4,2 C 0,0 km/h (0 Bft)
29.12.2013 12:15 4,0 C 89 % 1021,4 hPa 0,0 l/m 0,0 km/h (0 Bft) W-SW 247 2,4 C 4,7 C 0,0 km/h (0 Bft)
29.12.2013 12:20 3,9 C 89 % 1021,4 hPa 0,0 l/m 0,0 km/h (0 Bft) S 180 2,3 C 4,9 C 1,6 km/h (1 Bft)
29.12.2013 12:25 4,2 C 89 % 1021,4 hPa 0,0 l/m 0,0 km/h (0 Bft) SW 225 2,6 C 5,1 C 0,0 km/h (0 Bft)
29.12.2013 12:30 4,3 C 89 % 1020,9 hPa 0,0 l/m 0,2 km/h (0 Bft) S 180 2,7 C 5,4 C 2,1 km/h (1 Bft)
29.12.2013 12:35 3,8 C 88 % 1020,9 hPa 0,0 l/m 0,6 km/h (0 Bft) O-SO 112 2,0 C 5,4 C 0,0 km/h (0 Bft)
29.12.2013 12:40 3,6 C 86 % 1020,9 hPa 0,0 l/m 1,4 km/h (1 Bft) SO 135 1,5 C 5,2 C 2,1 km/h (1 Bft)
29.12.2013 12:45 3,5 C 85 % 1020,9 hPa 0,0 l/m 2,9 km/h (1 Bft) S 180 1,2 C 4,9 C 6,3 km/h (2 Bft)
29.12.2013 12:50 3,6 C 85 % 1020,9 hPa 0,0 l/m 3,4 km/h (1 Bft) S 180 1,3 C 4,4 C 2,3 km/h (1 Bft)
29.12.2013 12:55 3,6 C 84 % 1020,9 hPa 0,0 l/m 3,2 km/h (1 Bft) S-SO 157 1,2 C 4,3 C 3,2 km/h (1 Bft)
29.12.2013 13:00 3,7 C 84 % 1020,9 hPa 0,0 l/m 2,9 km/h (1 Bft) SO 135 1,3 C 4,5 C 3,4 km/h (1 Bft)
29.12.2013 13:05 3,9 C 85 % 1020,9 hPa 0,0 l/m 2,6 km/h (1 Bft) O-SO 112 1,6 C 4,6 C 0,0 km/h (0 Bft)
29.12.2013 13:10 3,9 C 84 % 1020,9 hPa 0,0 l/m 1,8 km/h (1 Bft) S 180 1,4 C 4,8 C 1,6 km/h (1 Bft)
29.12.2013 13:15 3,8 C 83 % 1020,9 hPa 0,0 l/m 1,8 km/h (1 Bft) SO 135 1,2 C 4,8 C 0,0 km/h (0 Bft)
29.12.2013 13:20 3,8 C 83 % 1020,9 hPa 0,0 l/m 1,9 km/h (1 Bft) S 180 1,2 C 4,8 C 2,1 km/h (1 Bft)
29.12.2013 13:25 3,6 C 82 % 1020,9 hPa 0,0 l/m 2,3 km/h (1 Bft) S 180 0,8 C 4,7 C 4,3 km/h (1 Bft)
29.12.2013 13:30 3,6 C 81 % 1021,0 hPa 0,0 l/m 3,4 km/h (1 Bft) S-SO 157 0,7 C 4,3 C 4,0 km/h (1 Bft)
29.12.2013 13:35 3,4 C 79 % 1021,0 hPa 0,0 l/m 4,0 km/h (1 Bft) S-SW 202 0,1 C 3,8 C 6,4 km/h (2 Bft)
29.12.2013 13:40 3,4 C 78 % 1021,0 hPa 0,0 l/m 4,5 km/h (1 Bft) S 180 -0,1 C 3,4 C 5,1 km/h (1 Bft)
29.12.2013 13:45 3,4 C 78 % 1021,0 hPa 0,0 l/m 5,0 km/h (1 Bft) S-SO 157 -0,1 C 3,2 C 6,4 km/h (2 Bft)
29.12.2013 13:50 3,4 C 79 % 1021,1 hPa 0,0 l/m 4,5 km/h (1 Bft) S 180 0,1 C 3,4 C 7,1 km/h (2 Bft)
29.12.2013 13:55 3,3 C 77 % 1021,1 hPa 0,0 l/m 5,3 km/h (1 Bft) S 180 -0,3 C 3,1 C 6,9 km/h (2 Bft)
29.12.2013 14:00 3,4 C 77 % 1021,1 hPa 0,0 l/m 5,1 km/h (1 Bft) SW 225 -0,2 C 3,1 C 4,8 km/h (1 Bft)
29.12.2013 14:05 3,4 C 77 % 1021,1 hPa 0,0 l/m 4,3 km/h (1 Bft) O-SO 112 -0,2 C 3,4 C 4,8 km/h (1 Bft)
29.12.2013 14:10 3,4 C 76 % 1021,1 hPa 0,0 l/m 5,1 km/h (1 Bft) SO 135 -0,4 C 3,0 C 7,2 km/h (2 Bft)
29.12.2013 14:15 3,4 C 76 % 1021,1 hPa 0,0 l/m 5,1 km/h (1 Bft) S 180 -0,4 C 3,1 C 2,6 km/h (1 Bft)
29.12.2013 14:20 3,5 C 76 % 1021,1 hPa 0,0 l/m 4,0 km/h (1 Bft) S 180 -0,3 C 3,6 C 6,3 km/h (2 Bft)
29.12.2013 14:25 3,5 C 76 % 1021,1 hPa 0,0 l/m 3,5 km/h (1 Bft) S 180 -0,3 C 3,9 C 6,3 km/h (2 Bft)
29.12.2013 14:30 3,4 C 75 % 1021,4 hPa 0,0 l/m 4,5 km/h (1 Bft) S 180 -0,6 C 3,4 C 6,9 km/h (2 Bft)
29.12.2013 14:35 3,4 C 75 % 1021,4 hPa 0,0 l/m 4,3 km/h (1 Bft) SO 135 -0,6 C 3,4 C 6,8 km/h (2 Bft)
29.12.2013 14:40 3,5 C 74 % 1021,4 hPa 0,0 l/m 4,2 km/h (1 Bft) SO 135 -0,7 C 3,6 C 6,4 km/h (2 Bft)
29.12.2013 14:45 3,4 C 74 % 1021,4 hPa 0,0 l/m 4,5 km/h (1 Bft) S 180 -0,8 C 3,9 C 7,4 km/h (2 Bft)
29.12.2013 14:50 3,3 C 73 % 1021,3 hPa 0,0 l/m 6,3 km/h (2 Bft) S 180 -1,1 C 3,2 C 7,4 km/h (2 Bft)
29.12.2013 14:55 3,2 C 73 % 1021,3 hPa 0,0 l/m 6,9 km/h (2 Bft) S 180 -1,2 C 3,1 C 6,8 km/h (2 Bft)
29.12.2013 14:59 3,2 C 73 % 1021,3 hPa 0,0 l/m 6,4 km/h (2 Bft) S-SO 157 -1,2 C 4,0 C 7,9 km/h (2 Bft)
29.12.2013 15:00 3,2 C 73 % 1021,3 hPa 0,0 l/m 6,4 km/h (2 Bft) S-SO 157 -1,2 C 4,0 C 7,9 km/h (2 Bft)
29.12.2013 15:05 3,2 C 73 % 1021,3 hPa 0,0 l/m 6,6 km/h (2 Bft) S-SO 157 -1,2 C 3,6 C 7,2 km/h (2 Bft)
29.12.2013 15:10 3,2 C 72 % 1021,8 hPa 0,0 l/m 6,4 km/h (2 Bft) S-SW 202 -1,3 C 4,3 C 8,0 km/h (2 Bft)
29.12.2013 15:15 3,1 C 71 % 1021,8 hPa 0,0 l/m 6,4 km/h (2 Bft) S 180 -1,6 C 3,3 C 7,6 km/h (2 Bft)
29.12.2013 15:20 3,0 C 71 % 1021,8 hPa 0,0 l/m 6,1 km/h (2 Bft) S-SO 157 -1,7 C 2,8 C 6,9 km/h (2 Bft)
29.12.2013 15:25 2,8 C 73 % 1021,8 hPa 0,0 l/m 6,1 km/h (2 Bft) S 180 -1,5 C 2,4 C 6,9 km/h (2 Bft)
29.12.2013 15:30 2,7 C 73 % 1021,9 hPa 0,0 l/m 5,3 km/h (1 Bft) O-SO 112 -1,6 C 2,1 C 4,0 km/h (1 Bft)
29.12.2013 15:35 2,5 C 73 % 1021,9 hPa 0,0 l/m 5,0 km/h (1 Bft) S 180 -1,8 C 1,7 C 2,9 km/h (1 Bft)
29.12.2013 15:40 2,5 C 73 % 1021,9 hPa 0,0 l/m 5,0 km/h (1 Bft) O-SO 112 -1,8 C 1,4 C 6,6 km/h (2 Bft)
29.12.2013 15:45 2,3 C 73 % 1021,9 hPa 0,0 l/m 5,0 km/h (1 Bft) S 180 -2,0 C 1,4 C 5,1 km/h (1 Bft)
29.12.2013 15:50 2,3 C 73 % 1022,1 hPa 0,0 l/m 5,6 km/h (1 Bft) O 90 -2,0 C 0,7 C 5,6 km/h (1 Bft)
29.12.2013 15:55 2,1 C 74 % 1022,1 hPa 0,0 l/m 5,1 km/h (1 Bft) O-SO 112 -2,0 C 0,7 C 5,8 km/h (2 Bft)
29.12.2013 16:00 2,1 C 74 % 1022,1 hPa 0,0 l/m 4,8 km/h (1 Bft) O-SO 112 -2,0 C 0,6 C 6,3 km/h (2 Bft)
29.12.2013 16:05 1,9 C 75 % 1022,1 hPa 0,0 l/m 4,8 km/h (1 Bft) O-SO 112 -2,1 C 0,5 C 6,3 km/h (2 Bft)
29.12.2013 16:10 1,7 C 75 % 1022,1 hPa 0,0 l/m 5,5 km/h (1 Bft) O-SO 112 -2,2 C 0,1 C 7,4 km/h (2 Bft)
29.12.2013 16:15 1,9 C 76 % 1022,1 hPa 0,0 l/m 5,8 km/h (2 Bft) NO 45 -1,9 C -0,1 C 6,4 km/h (2 Bft)
29.12.2013 16:20 1,4 C 76 % 1022,1 hPa 0,0 l/m 5,5 km/h (1 Bft) NO 45 -2,4 C -0,1 C 3,7 km/h (1 Bft)
29.12.2013 16:25 1,1 C 77 % 1022,1 hPa 0,0 l/m 4,5 km/h (1 Bft) O-NO 67 -2,5 C 0,1 C 4,5 km/h (1 Bft)
29.12.2013 16:30 1,0 C 78 % 1022,4 hPa 0,0 l/m 3,4 km/h (1 Bft) O 90 -2,4 C 0,4 C 4,5 km/h (1 Bft)
29.12.2013 16:35 1,0 C 79 % 1022,4 hPa 0,0 l/m 3,2 km/h (1 Bft) NO 45 -2,2 C 0,4 C 3,1 km/h (1 Bft)
29.12.2013 16:40 0,9 C 79 % 1022,4 hPa 0,0 l/m 2,4 km/h (1 Bft) O-NO 67 -2,3 C 0,8 C 1,9 km/h (1 Bft)
29.12.2013 16:45 0,9 C 79 % 1022,4 hPa 0,0 l/m 1,6 km/h (1 Bft) O 90 -2,3 C 0,7 C 3,1 km/h (1 Bft)
29.12.2013 16:50 0,8 C 80 % 1022,5 hPa 0,0 l/m 1,6 km/h (1 Bft) NO 45 -2,2 C 0,6 C 4,2 km/h (1 Bft)
29.12.2013 16:55 0,8 C 80 % 1022,5 hPa 0,0 l/m 1,9 km/h (1 Bft) N-NO 22 -2,2 C 0,6 C 2,4 km/h (1 Bft)
29.12.2013 17:00 0,9 C 81 % 1022,5 hPa 0,0 l/m 1,8 km/h (1 Bft) O 90 -2,0 C 0,7 C 3,7 km/h (1 Bft)
29.12.2013 17:05 0,8 C 81 % 1022,5 hPa 0,0 l/m 1,6 km/h (1 Bft) N 360 -2,1 C 0,7 C 3,2 km/h (1 Bft)
29.12.2013 17:10 0,8 C 81 % 1022,6 hPa 0,0 l/m 1,9 km/h (1 Bft) SO 135 -2,1 C 0,6 C 3,1 km/h (1 Bft)
29.12.2013 17:15 0,7 C 81 % 1022,6 hPa 0,0 l/m 2,9 km/h (1 Bft) NO 45 -2,2 C 0,4 C 2,7 km/h (1 Bft)
29.12.2013 17:20 0,7 C 81 % 1022,6 hPa 0,0 l/m 2,7 km/h (1 Bft) O-NO 67 -2,2 C 0,5 C 4,7 km/h (1 Bft)
29.12.2013 17:25 1,0 C 81 % 1022,6 hPa 0,0 l/m 2,7 km/h (1 Bft) O-SO 112 -1,9 C 0,5 C 7,1 km/h (2 Bft)
29.12.2013 17:30 0,8 C 81 % 1022,8 hPa 0,0 l/m 3,1 km/h (1 Bft) NO 45 -2,1 C 0,4 C 5,3 km/h (1 Bft)
29.12.2013 17:35 0,8 C 80 % 1022,8 hPa 0,0 l/m 2,9 km/h (1 Bft) O-NO 67 -2,2 C 0,4 C 1,9 km/h (1 Bft)
29.12.2013 17:40 0,6 C 80 % 1022,8 hPa 0,0 l/m 3,1 km/h (1 Bft) SO 135 -2,4 C 0,3 C 4,2 km/h (1 Bft)
29.12.2013 17:45 0,4 C 80 % 1022,8 hPa 0,0 l/m 3,1 km/h (1 Bft) O 90 -2,6 C 0,2 C 2,3 km/h (1 Bft)
29.12.2013 17:50 0,4 C 79 % 1023,0 hPa 0,0 l/m 2,7 km/h (1 Bft) O 90 -2,8 C 0,2 C 2,7 km/h (1 Bft)
29.12.2013 17:55 0,3 C 79 % 1023,0 hPa 0,0 l/m 1,8 km/h (1 Bft) S-SW 202 -2,9 C 0,1 C 0,0 km/h (0 Bft)
29.12.2013 18:00 0,1 C 79 % 1023,0 hPa 0,0 l/m 1,3 km/h (1 Bft) O-SO 112 -3,1 C -0,4 C 4,7 km/h (1 Bft)
29.12.2013 18:05 0,8 C 79 % 1023,0 hPa 0,0 l/m 2,6 km/h (1 Bft) O-SO 112 -2,4 C -0,6 C 4,5 km/h (1 Bft)
29.12.2013 18:10 0,6 C 78 % 1023,3 hPa 0,0 l/m 5,5 km/h (1 Bft) O-SO 112 -2,8 C -1,7 C 4,7 km/h (1 Bft)
29.12.2013 18:15 0,9 C 77 % 1023,3 hPa 0,0 l/m 5,5 km/h (1 Bft) O-SO 112 -2,7 C -1,4 C 6,3 km/h (2 Bft)
29.12.2013 18:20 1,2 C 76 % 1023,3 hPa 0,0 l/m 5,6 km/h (1 Bft) O-SO 112 -2,5 C -1,2 C 5,3 km/h (1 Bft)
29.12.2013 18:25 1,2 C 75 % 1023,3 hPa 0,0 l/m 5,8 km/h (2 Bft) SO 135 -2,7 C -1,1 C 7,1 km/h (2 Bft)
29.12.2013 18:30 1,1 C 74 % 1023,5 hPa 0,0 l/m 5,8 km/h (2 Bft) N-NW 337 -3,0 C -1,1 C 6,4 km/h (2 Bft)
29.12.2013 18:35 1,2 C 74 % 1023,5 hPa 0,0 l/m 5,5 km/h (1 Bft) O-SO 112 -2,9 C -0,9 C 6,1 km/h (2 Bft)
29.12.2013 18:40 1,0 C 74 % 1023,5 hPa 0,0 l/m 5,3 km/h (1 Bft) O-SO 112 -3,1 C -0,9 C 5,6 km/h (1 Bft)
29.12.2013 18:45 0,9 C 74 % 1023,5 hPa 0,0 l/m 5,3 km/h (1 Bft) O 90 -3,2 C -1,1 C 6,4 km/h (2 Bft)
29.12.2013 18:50 1,0 C 74 % 1023,8 hPa 0,0 l/m 5,8 km/h (2 Bft) O 90 -3,1 C -1,3 C 6,8 km/h (2 Bft)
29.12.2013 18:55 0,6 C 74 % 1023,8 hPa 0,0 l/m 6,4 km/h (2 Bft) O 90 -3,5 C -1,4 C 6,9 km/h (2 Bft)
29.12.2013 19:00 0,6 C 74 % 1023,8 hPa 0,0 l/m 6,3 km/h (2 Bft) O-NO 67 -3,5 C -1,4 C 6,4 km/h (2 Bft)
29.12.2013 19:05 0,6 C 75 % 1023,8 hPa 0,0 l/m 5,8 km/h (2 Bft) O 90 -3,3 C -1,4 C 6,4 km/h (2 Bft)
29.12.2013 19:10 0,6 C 75 % 1024,0 hPa 0,0 l/m 5,0 km/h (1 Bft) O 90 -3,3 C -1,0 C 4,0 km/h (1 Bft)
29.12.2013 19:15 0,4 C 76 % 1024,0 hPa 0,0 l/m 3,5 km/h (1 Bft) O-SO 112 -3,3 C -0,5 C 0,0 km/h (0 Bft)
29.12.2013 19:20 -0,3 C 76 % 1024,0 hPa 0,0 l/m 1,8 km/h (1 Bft) SO 135 -4,0 C 0,0 C 0,0 km/h (0 Bft)
29.12.2013 19:25 -0,8 C 77 % 1024,0 hPa 0,0 l/m 0,6 km/h (0 Bft) O-SO 112 -4,3 C -0,5 C 0,0 km/h (0 Bft)
29.12.2013 19:30 0,5 C 78 % 1024,2 hPa 0,0 l/m 2,1 km/h (1 Bft) O 90 -2,9 C -0,6 C 6,8 km/h (2 Bft)
29.12.2013 19:35 1,1 C 77 % 1024,2 hPa 0,0 l/m 5,3 km/h (1 Bft) O-SO 112 -2,5 C -1,4 C 5,8 km/h (2 Bft)
29.12.2013 19:40 1,4 C 76 % 1024,2 hPa 0,0 l/m 6,1 km/h (2 Bft) O-NO 67 -2,4 C -1,3 C 8,2 km/h (2 Bft)
29.12.2013 19:45 1,3 C 75 % 1024,2 hPa 0,0 l/m 6,4 km/h (2 Bft) O-SO 112 -2,6 C -0,9 C 8,2 km/h (2 Bft)
29.12.2013 19:50 1,2 C 75 % 1024,3 hPa 0,0 l/m 6,4 km/h (2 Bft) O 90 -2,7 C -0,8 C 7,4 km/h (2 Bft)
29.12.2013 19:55 0,9 C 76 % 1024,3 hPa 0,0 l/m 5,3 km/h (1 Bft) NO 45 -2,8 C -0,2 C 5,0 km/h (1 Bft)
29.12.2013 19:59 0,8 C 76 % 1024,3 hPa 0,0 l/m 3,7 km/h (1 Bft) NO 45 -2,9 C 0,5 C 2,1 km/h (1 Bft)
29.12.2013 20:00 0,8 C 76 % 1024,3 hPa 0,0 l/m 3,7 km/h (1 Bft) NO 45 -2,9 C 0,5 C 2,1 km/h (1 Bft)
29.12.2013 20:05 0,7 C 77 % 1024,3 hPa 0,0 l/m 2,1 km/h (1 Bft) NO 45 -2,9 C 1,2 C 1,8 km/h (1 Bft)
29.12.2013 20:10 0,6 C 77 % 1024,4 hPa 0,0 l/m 0,8 km/h (0 Bft) NO 45 -3,0 C 0,9 C 4,0 km/h (1 Bft)
29.12.2013 20:15 0,6 C 78 % 1024,4 hPa 0,0 l/m 1,6 km/h (1 Bft) O-SO 112 -2,8 C 0,8 C 1,9 km/h (1 Bft)
29.12.2013 20:20 0,6 C 78 % 1024,4 hPa 0,0 l/m 1,9 km/h (1 Bft) O 90 -2,8 C 0,7 C 1,9 km/h (1 Bft)
29.12.2013 20:25 0,6 C 79 % 1024,4 hPa 0,0 l/m 1,3 km/h (1 Bft) N-NO 22 -2,6 C 0,6 C 1,9 km/h (1 Bft)
29.12.2013 20:30 0,5 C 79 % 1024,7 hPa 0,0 l/m 1,9 km/h (1 Bft) O-NO 67 -2,7 C 0,5 C 6,1 km/h (2 Bft)
29.12.2013 20:35 0,3 C 80 % 1024,7 hPa 0,0 l/m 1,6 km/h (1 Bft) NO 45 -2,7 C 0,4 C 0,0 km/h (0 Bft)
29.12.2013 20:40 0,0 C 80 % 1024,7 hPa 0,0 l/m 1,0 km/h (0 Bft) O-NO 67 -3,0 C 0,1 C 1,6 km/h (1 Bft)
29.12.2013 20:45 0,0 C 81 % 1024,7 hPa 0,0 l/m 0,6 km/h (0 Bft) N-NO 22 -2,9 C -0,2 C 2,1 km/h (1 Bft)
29.12.2013 20:50 0,1 C 82 % 1024,8 hPa 0,0 l/m 1,8 km/h (1 Bft) NO 45 -2,6 C -0,3 C 4,3 km/h (1 Bft)
29.12.2013 20:55 0,0 C 82 % 1024,8 hPa 0,0 l/m 2,1 km/h (1 Bft) W-NW 292 -2,7 C -0,2 C 0,0 km/h (0 Bft)
29.12.2013 21:00 -0,4 C 82 % 1024,8 hPa 0,0 l/m 1,3 km/h (1 Bft) W-NW 292 -3,1 C -0,4 C 0,0 km/h (0 Bft)
29.12.2013 21:05 -0,5 C 82 % 1024,8 hPa 0,0 l/m 0,2 km/h (0 Bft) NO 45 -3,2 C -0,6 C 0,0 km/h (0 Bft)
29.12.2013 21:10 -0,4 C 83 % 1025,1 hPa 0,0 l/m 1,0 km/h (0 Bft) O-SO 112 -2,9 C -0,9 C 3,1 km/h (1 Bft)
29.12.2013 21:15 0,5 C 83 % 1025,1 hPa 0,0 l/m 3,9 km/h (1 Bft) S 180 -2,0 C -1,4 C 6,8 km/h (2 Bft)
29.12.2013 21:20 0,1 C 82 % 1025,1 hPa 0,0 l/m 5,3 km/h (1 Bft) S 180 -2,6 C -2,0 C 9,2 km/h (2 Bft)
29.12.2013 21:25 0,3 C 83 % 1025,1 hPa 0,0 l/m 5,8 km/h (2 Bft) S 180 -2,2 C -1,8 C 6,0 km/h (2 Bft)
29.12.2013 21:30 0,6 C 83 % 1025,2 hPa 0,0 l/m 6,4 km/h (2 Bft) S 180 -1,9 C -1,5 C 7,1 km/h (2 Bft)
29.12.2013 21:35 0,9 C 83 % 1025,2 hPa 0,0 l/m 6,0 km/h (2 Bft) S 180 -1,7 C -0,9 C 4,7 km/h (1 Bft)
29.12.2013 21:40 1,1 C 83 % 1025,2 hPa 0,0 l/m 5,5 km/h (1 Bft) S-SO 157 -1,5 C -0,6 C 7,6 km/h (2 Bft)
29.12.2013 21:45 1,2 C 83 % 1025,2 hPa 0,0 l/m 5,6 km/h (1 Bft) O-SO 112 -1,4 C -0,6 C 6,4 km/h (2 Bft)
29.12.2013 21:50 0,9 C 83 % 1025,2 hPa 0,0 l/m 5,8 km/h (2 Bft) S 180 -1,7 C -0,8 C 7,1 km/h (2 Bft)
29.12.2013 21:55 0,3 C 83 % 1025,2 hPa 0,0 l/m 5,0 km/h (1 Bft) SO 135 -2,2 C -0,8 C 1,6 km/h (1 Bft)
29.12.2013 22:00 0,5 C 84 % 1025,2 hPa 0,0 l/m 3,5 km/h (1 Bft) O-SO 112 -1,9 C -0,4 C 1,8 km/h (1 Bft)
29.12.2013 22:05 0,3 C 84 % 1025,2 hPa 0,0 l/m 1,4 km/h (1 Bft) O-SO 112 -2,1 C 0,2 C 0,0 km/h (0 Bft)
29.12.2013 22:10 0,4 C 85 % 1025,6 hPa 0,0 l/m 1,6 km/h (1 Bft) O-NO 67 -1,8 C 0,0 C 5,8 km/h (2 Bft)
29.12.2013 22:15 0,4 C 85 % 1025,6 hPa 0,0 l/m 2,3 km/h (1 Bft) O 90 -1,8 C 0,1 C 0,0 km/h (0 Bft)
29.12.2013 22:20 0,1 C 85 % 1025,6 hPa 0,0 l/m 1,3 km/h (1 Bft) N-NO 22 -2,1 C 0,0 C 0,0 km/h (0 Bft)
29.12.2013 22:25 0,2 C 85 % 1025,6 hPa 0,0 l/m 0,5 km/h (0 Bft) O-NO 67 -2,0 C -0,2 C 2,7 km/h (1 Bft)
29.12.2013 22:30 0,3 C 85 % 1025,9 hPa 0,0 l/m 1,6 km/h (1 Bft) O-NO 67 -1,9 C -0,2 C 1,8 km/h (1 Bft)
29.12.2013 22:35 0,3 C 86 % 1025,9 hPa 0,0 l/m 1,9 km/h (1 Bft) NO 45 -1,8 C -0,1 C 3,7 km/h (1 Bft)
29.12.2013 22:40 0,2 C 86 % 1025,9 hPa 0,0 l/m 1,8 km/h (1 Bft) NO 45 -1,9 C -0,1 C 3,7 km/h (1 Bft)
29.12.2013 22:45 0,3 C 86 % 1025,9 hPa 0,0 l/m 2,4 km/h (1 Bft) O-NO 67 -1,8 C -0,2 C 6,8 km/h (2 Bft)
29.12.2013 22:50 0,1 C 86 % 1025,9 hPa 0,0 l/m 4,2 km/h (1 Bft) NO 45 -2,0 C -1,5 C 7,2 km/h (2 Bft)
29.12.2013 22:55 -0,1 C 86 % 1025,9 hPa 0,0 l/m 5,0 km/h (1 Bft) O-NO 67 -2,2 C -1,8 C 3,2 km/h (1 Bft)
29.12.2013 23:00 -0,1 C 86 % 1025,9 hPa 0,0 l/m 4,8 km/h (1 Bft) O-NO 67 -2,2 C -1,8 C 4,3 km/h (1 Bft)
29.12.2013 23:05 0,1 C 86 % 1025,9 hPa 0,0 l/m 4,3 km/h (1 Bft) O-SO 112 -2,0 C -1,5 C 7,7 km/h (2 Bft)
29.12.2013 23:10 0,2 C 86 % 1025,9 hPa 0,0 l/m 5,1 km/h (1 Bft) O 90 -1,9 C -1,8 C 7,4 km/h (2 Bft)
29.12.2013 23:15 0,0 C 86 % 1025,9 hPa 0,0 l/m 5,0 km/h (1 Bft) NO 45 -2,1 C -1,6 C 3,5 km/h (1 Bft)
29.12.2013 23:20 0,0 C 86 % 1025,9 hPa 0,0 l/m 5,1 km/h (1 Bft) S 180 -2,1 C -1,7 C 6,9 km/h (2 Bft)
29.12.2013 23:25 -0,2 C 86 % 1025,9 hPa 0,0 l/m 4,8 km/h (1 Bft) S 180 -2,3 C -1,5 C 0,0 km/h (0 Bft)
29.12.2013 23:30 -0,1 C 87 % 1026,1 hPa 0,0 l/m 3,1 km/h (1 Bft) O-SO 112 -2,0 C -0,8 C 4,2 km/h (1 Bft)
29.12.2013 23:35 -0,1 C 87 % 1026,1 hPa 0,0 l/m 3,7 km/h (1 Bft) O 90 -2,0 C -1,3 C 8,4 km/h (2 Bft)
29.12.2013 23:40 0,0 C 87 % 1026,1 hPa 0,0 l/m 5,5 km/h (1 Bft) O 90 -1,9 C -2,1 C 7,4 km/h (2 Bft)
29.12.2013 23:45 -0,4 C 87 % 1026,1 hPa 0,0 l/m 6,3 km/h (2 Bft) O 90 -2,3 C -2,4 C 8,4 km/h (2 Bft)
29.12.2013 23:50 -0,4 C 87 % 1026,2 hPa 0,0 l/m 5,1 km/h (1 Bft) O 90 -2,3 C -2,1 C 7,2 km/h (2 Bft)
29.12.2013 23:55 -0,1 C 88 % 1026,2 hPa 0,0 l/m 4,8 km/h (1 Bft) O 90 -1,8 C -1,9 C 7,9 km/h (2 Bft)
_ Min-Zeit 19:25 15:20 00:25 - 12:25 - - 19:25 04:10 23:25
Minimum _ -0,8 C 71 % 1012,7 hPa - 0,0 km/h (0 Bft) - - -4,3 C -3,5 C 0,0 km/h (0 Bft)
_ Max-Zeit 12:30 08:50 23:55 23:55 04:10 - - 12:30 12:35 03:50
Maximum _ 4,3 C 95 % 1026,2 hPa 0,0 l/m 10,0 km/h
S (2 Bft)
- - 2,7 C 5,4 C 20,9 km/h
S (4 Bft)
Durchschnitt _ 1,7 C 87 % 1020,0 hPa #0,0 l/m 4,6 km/h (1 Bft) S - -0,3 C 0,7 C 5,6 km/h (1 Bft)